Orbital Elements at Epoch 2459200.5 (2020-Dec-17.0) TDB
Reference: JPL 28 (heliocentric ecliptic J2000)
Element | Value | Uncertainty (1-sigma) | Units |
e | .07506809237634283 | 3.6955e-08 | |
a | 3.018522644867671 | 1.7252e-08 | au |
q | 2.791927908122662 | 1.0677e-07 | au |
i | 11.1122084322845 | 4.249e-06 | deg |
node | 72.95030514308243 | 2.6978e-05 | deg |
peri | 22.65421753745317 | 4.7643e-05 | deg |
M | 196.6480292119808 | 3.9321e-05 | deg |
tp | 2460069.684477860593 (2023-May-05.18447786) | 0.00021186 | TDB |
period | 1915.534967348941 5.24 | 1.6422e-05 4.496e-08 | d yr |
n | .1879370547321473 | 1.6112e-09 | deg/d |
Q | 3.24511738161268 | 1.8547e-08 | au |
|
| | Orbit Determination Parameters
Additional Information
|